Regional Weather Roundup
Issued by NWS Sterling, VA

Home | Current Version | Previous Version | Graphics & Text | Print | Product List | Glossary On
Versions: 1 2 3 4 5 6 7 8 9 10 11 12 13 14 15 16 17 18 19 20 21 22 23 24 25 26 27 28 29 30 31 32 33 34 35 36 37 38 39 40 41 42 43 44 45 46 47 48 49 50
000
ASUS41 KLWX 271011
RWRLWX

REGIONAL WEATHER ROUNDUP
NATIONAL WEATHER SERVICE BALTIMORE MD/WASHINGTON DC
600 AM EDT TUE SEP 27 2016

Note: "FAIR" indicates few or no clouds below 12,000 feet
with no significant weather and/or obstructions to visibility.
 TC=TEMPERATURE CELSIUS

 * =Non NWS site. Station does not report precipitation (e.g. rain,
    snow, etc.), thunder, or fog.

DCZ001-MDZ009-015-VAZ040>042-051-053>054-271100-
WASHINGTON METRO

CITY           SKY/WX    TMP DP  RH WIND       PRES   REMARKS
WASHINGTON NAT LGT RAIN  67  66  97 S3        29.94F
DULLES         CLOUDY    65  64  97 NW3       29.95R
ANDREWS AFB    CLOUDY    66  64  94 W3        29.93S
FT BELVOIR     CLOUDY    66  65  96 CALM      29.94R
QUANTICO       CLOUDY    68  65  90 CALM      29.94S
COLLEGE PARK*  CLOUDY    64  63  94 CALM      29.94S
LEESBURG*      CLOUDY    64  64 100 N5        29.96R
MANASSAS*      CLOUDY    64  64 100 CALM      29.94S
GAITHERSBURG*  CLOUDY    63  61  94 NW3       29.99R

$$

MDZ006>007-011-014-271100-
BALTIMORE METRO

CITY           SKY/WX    TMP DP  RH WIND       PRES   REMARKS
BWI AIRPORT    CLOUDY    65  63  93 CALM      29.94S
MD SCIENCE CTR   N/A     66  63  90 MISG      29.94F
MARTIN STATE   CLOUDY    66  66 100 CALM      29.95
ANNAPOLIS      LGT RAIN  68  66  93 W3        29.93F FOG
FORT MEADE*    CLOUDY    63  63 100 CALM      29.96F

$$

MDZ012-015-019>023-271100-
MARYLAND EASTERN SHORE

CITY           SKY/WX    TMP DP  RH WIND       PRES   REMARKS
OCEAN CITY     CLOUDY    72  68  87 SW7       29.94S
SALISBURY      LGT RAIN  69  68  96 SW12G22   29.94S FOG
BAY BRIDGE AP* RAIN      66  66 100 MISG      29.93F FOG
CAMBRIDGE*     MOCLDY    66  64  94 CALM      29.94S
EASTON*        RAIN      68  66  94 NW6       29.98

$$

MDZ017>025-271100-
SOUTHERN MARYLAND

CITY           SKY/WX    TMP DP  RH WIND       PRES   REMARKS
PATUXENT RIVER LGT RAIN  68  65  90 W8        29.94R
ST INIGOES     LGT RAIN  69  67  93 W10       29.93S
LEONARDTOWN*   CLOUDY    66  64  94 CALM      29.95F

$$

MDZ003>005-271100-
NORTH CENTRAL MARYLAND

CITY           SKY/WX    TMP DP  RH WIND       PRES   REMARKS
FREDERICK*     NOT AVBL
HAGERSTOWN APT MOCLDY    61  56  83 W3        29.97R

$$

MDZ501>502-271100-
WESTERN MARYLAND

CITY           SKY/WX    TMP DP  RH WIND       PRES   REMARKS
OAKLAND*       CLEAR     46  46 100 SW7       30.02S
CUMBERLAND*    CLEAR     55  52  88 CALM      30.03S

$$

VAZ025>031-271100-
SHENANDOAH VALLEY

CITY           SKY/WX    TMP DP  RH WIND       PRES   REMARKS
WINCHESTER*    CLOUDY    59  52  77 NW10      29.97S
FRONT ROYAL*   CLOUDY    61  61 100 N5        29.96R
LURAY*         FOG      N/A N/A N/A CALM      29.96S VSB 1/2
NEW MARKET*    PTSUNNY  N/A N/A N/A CALM      29.96R
STAUNTON*      FOG       62  62 100 CALM      29.99R VSB 1/4
WAYNESBORO*    FAIR      63  62  96 W3        29.98R

$$

WVZ021-048>050-054>055-271100-
EASTERN WEST VIRGINIA PANHANDLE

CITY           SKY/WX    TMP DP  RH WIND       PRES   REMARKS
MARTINSBURG    MOCLDY    59  55  87 N5        29.97R
PETERSBURG*    PTCLDY    57  53  86 CALM      29.99R

$$

VAZ036>039-050-271100-
CENTRAL FOOTHILLS

CITY           SKY/WX    TMP DP  RH WIND       PRES   REMARKS
CHARLOTTESVILL FOG       66  65  96 CALM      29.94S VSB 1/2
CULPEPER*      CLOUDY    66  66 100 CALM      29.95S FOG
ORANGE*          N/A     66  66 100 CALM      29.95F
GORDONSVILLE*  CLOUDY    64  64 100 CALM      29.94S
WARRENTON*     CLOUDY    66  62  86 CALM      29.94S FOG

$$

VAZ055>057-271100-
NORTH AND CENTRAL PIEDMONT

CITY           SKY/WX    TMP DP  RH WIND       PRES   REMARKS
FREDERICKSBRG* DRIZZLE   66  66 100 CALM      29.93S
STAFFORD*      CLOUDY    65  65 100 CALM      29.97S FOG

$$

NCZ024-NYZ072-PAZ021-071-VAZ022-071-271100-
OTHER REGIONAL OBSERVATIONS

CITY           SKY/WX    TMP DP  RH WIND       PRES   REMARKS
NEW YORK CITY  CLOUDY    65  63  93 CALM      29.93S
PHILADELPHIA   LGT RAIN  67  64  90 W10       29.93R
PITTSBURGH     CLEAR     53  51  93 S6        29.96F
ROANOKE        CLOUDY    67  66  97 CALM      29.99F
RICHMOND       CLOUDY    67  65  93 S7        29.94F
RALEIGH        CLOUDY    68  66  93 W3        29.97F

$$

ANZ530>537-271100-
MARINE OBSERVATIONS

STATION/POSITION TIME  TEMP    WIND        PRES
                       AIR SEA DIR/SP/G
                 (UTC) (F)     (DEG/KT/KT) (MB)
THOMAS PT LIGHT  1000   67 74  280/  6/  7 1014.9F
BALT KEY BRIDGE  0942   66     230/  5/  6 1013.6F
COVE POINT       0942   68     320/  5/  9 1014.3R
LEWISETTA        0942   68 73  250/  9/ 11 1013.4F
SOLOMONS ISLAND  0942   69 75  280/  4/  7   N/A
PINEY POINT      0948          290/  8/  9   N/A

$$




USA.gov is the U.S. government's official web portal to all federal, state and local government web resources and services.